Decatur, TX

6:37 AM CDT on October 21, 2017 (GMT -0500)
Decatur

Weather History for KLUD - February, 2012

Change the Weather History Date:

Thursday, February 23, 2012

  Actual Average (KDTO) Record (KDTO)
Temperature  
Mean Temperature 67 °F -  
Max Temperature 77 °F 57 °F 89 °F (2017)
Min Temperature 55 °F 36 °F 24 °F (2015)
Cooling Degree Days 2    
Growing Degree Days 17 (Base 50)    
Moisture  
Dew Point 30 °F    
Average Humidity 27    
Maximum Humidity 44    
Minimum Humidity 18    
Precipitation  
Precipitation 0.00 in - - ()
Sea Level Pressure  
Sea Level Pressure 29.50 in    
Wind  
Wind Speed 14 mph (West)    
Max Wind Speed 23 mph    
Max Gust Speed 33 mph    
Visibility 10 miles    
Events      
Averages and records for this station are not official NWS values.
T = Trace of Precipitation, MM = Missing Value Source: NWS Daily Summary

Daily Weather History Graph

Daily Weather History Graph

Search for Another Location

Airport or City:

Trip Planner

Search our weather history database for the weather conditions in past years. The results will help you decide how hot, cold, wet, or windy it might be!

Date:

Astronomy

Feb. 23, 2012 Rise Set
Actual Time 7:06 AM CST 6:21 PM CST
Civil Twilight 6:40 AM CST 6:46 PM CST
Nautical Twilight 6:12 AM CST 7:15 PM CST
Astronomical Twilight 5:43 AM CST 7:44 PM CST
Moon 7:41 AM CST (2/23) 8:18 PM CST (2/23)
Length of Visible Light 12h 05m
Length of Day
11h 15m
Waxing Crescent, 3% of the Moon is Illuminated
Feb 23
Waxing Crescent
Feb 29
First Quarter
Mar 8
Full
Mar 14
Last Quarter
Mar 22
New

Hourly Weather History & Observations

Time (CST) Temp. Dew Point Humidity Pressure Visibility Wind Dir Wind Speed Gust Speed Precip Events Conditions
12:15 AM 60.8 °F 32.0 °F 34% 29.51 in 10.0 mi SSW 10.4 mph - N/A   Clear
12:35 AM 60.8 °F 32.0 °F 34% 29.50 in 10.0 mi SSW 11.5 mph - N/A   Clear
12:55 AM 60.8 °F 32.0 °F 34% 29.49 in 10.0 mi SSW 12.7 mph - N/A   Clear
1:15 AM 60.8 °F 30.2 °F 31% 29.48 in 10.0 mi SW 13.8 mph - N/A   Clear
1:35 AM 60.8 °F 30.2 °F 31% 29.48 in 10.0 mi SW 11.5 mph - N/A   Clear
1:55 AM 60.8 °F 28.4 °F 29% 29.47 in 10.0 mi SW 12.7 mph - N/A   Clear
2:15 AM 60.8 °F 28.4 °F 29% 29.46 in 10.0 mi SW 11.5 mph - N/A   Clear
2:35 AM 62.6 °F 28.4 °F 27% 29.45 in 10.0 mi WSW 15.0 mph 19.6 mph N/A   Clear
2:55 AM 62.6 °F 26.6 °F 26% 29.45 in 10.0 mi WSW 15.0 mph 20.7 mph N/A   Clear
3:15 AM 62.6 °F 26.6 °F 26% 29.43 in 10.0 mi SW 16.1 mph 23.0 mph N/A   Clear
3:35 AM 60.8 °F 26.6 °F 27% 29.43 in 10.0 mi SW 17.3 mph - N/A   Clear
3:55 AM 60.8 °F 26.6 °F 27% 29.43 in 10.0 mi SW 12.7 mph - N/A   Clear
4:15 AM 60.8 °F 26.6 °F 27% 29.43 in 10.0 mi SW 13.8 mph - N/A   Clear
4:35 AM 60.8 °F 26.6 °F 27% 29.42 in 10.0 mi SW 12.7 mph - N/A   Clear
4:55 AM 60.8 °F 26.6 °F 27% 29.43 in 10.0 mi WSW 12.7 mph 19.6 mph N/A   Clear
5:15 AM 60.8 °F 24.8 °F 25% 29.42 in 10.0 mi SW 12.7 mph 19.6 mph N/A   Clear
5:35 AM 60.8 °F 24.8 °F 25% 29.42 in 10.0 mi SW 13.8 mph 20.7 mph N/A   Clear
5:55 AM 60.8 °F 24.8 °F 25% 29.43 in 10.0 mi WSW 11.5 mph - N/A   Clear
6:15 AM 60.8 °F 23.0 °F 23% 29.43 in 10.0 mi WSW 15.0 mph 18.4 mph N/A   Clear
6:35 AM 60.8 °F 23.0 °F 23% 29.43 in 10.0 mi WSW 13.8 mph - N/A   Clear
6:55 AM 60.8 °F 23.0 °F 23% 29.43 in 10.0 mi WSW 11.5 mph - N/A   Clear
7:15 AM 60.8 °F 23.0 °F 23% 29.44 in 10.0 mi WSW 10.4 mph - N/A   Clear
7:35 AM 59.0 °F 23.0 °F 25% 29.43 in 10.0 mi WSW 11.5 mph - N/A   Clear
7:55 AM 60.8 °F 23.0 °F 23% 29.43 in 10.0 mi WSW 13.8 mph - N/A   Clear
8:15 AM 60.8 °F 24.8 °F 25% 29.45 in 10.0 mi WSW 13.8 mph - N/A   Clear
8:35 AM 62.6 °F 26.6 °F 26% 29.45 in 10.0 mi West 15.0 mph 18.4 mph N/A   Clear
8:55 AM 64.4 °F 28.4 °F 26% 29.45 in 10.0 mi West 13.8 mph 21.9 mph N/A   Clear
9:15 AM 68.0 °F 26.6 °F 21% 29.47 in 10.0 mi West 17.3 mph 25.3 mph N/A   Clear
9:35 AM 69.8 °F 28.4 °F 21% 29.46 in 10.0 mi West 19.6 mph 29.9 mph N/A   Clear
9:55 AM 71.6 °F 28.4 °F 20% 29.46 in 10.0 mi West 17.3 mph 25.3 mph N/A   Clear
10:15 AM 71.6 °F 28.4 °F 20% 29.47 in 10.0 mi West 23.0 mph 29.9 mph N/A   Clear
10:35 AM 73.4 °F 28.4 °F 19% 29.46 in 10.0 mi West 20.7 mph 33.4 mph N/A   Clear
10:55 AM 73.4 °F 26.6 °F 18% 29.46 in 10.0 mi West 23.0 mph 33.4 mph N/A   Clear
11:15 AM 73.4 °F 28.4 °F 19% 29.47 in 10.0 mi West 20.7 mph 27.6 mph N/A   Clear
11:35 AM 73.4 °F 28.4 °F 19% 29.47 in 10.0 mi WNW 17.3 mph 25.3 mph N/A   Clear
11:55 AM 73.4 °F 28.4 °F 19% 29.47 in 10.0 mi WNW 19.6 mph 26.5 mph N/A   Clear
12:15 PM 73.4 °F 28.4 °F 19% 29.47 in 10.0 mi West 15.0 mph 27.6 mph N/A   Clear
12:35 PM 73.4 °F 28.4 °F 19% 29.47 in 10.0 mi WNW 20.7 mph 25.3 mph N/A   Clear
12:55 PM 75.2 °F 30.2 °F 19% 29.48 in 10.0 mi West 16.1 mph 24.2 mph N/A   Clear
1:15 PM 75.2 °F 30.2 °F 19% 29.47 in 10.0 mi WNW 15.0 mph 24.2 mph N/A   Clear
1:35 PM 75.2 °F 30.2 °F 19% 29.47 in 10.0 mi WNW 15.0 mph 25.3 mph N/A   Clear
1:55 PM 75.2 °F 30.2 °F 19% 29.47 in 10.0 mi West 16.1 mph 21.9 mph N/A   Clear
2:15 PM 75.2 °F 32.0 °F 21% 29.47 in 10.0 mi WNW 11.5 mph 23.0 mph N/A   Clear
2:35 PM 77.0 °F 32.0 °F 19% 29.48 in 10.0 mi WNW 10.4 mph 20.7 mph N/A   Clear
2:55 PM 75.2 °F 32.0 °F 21% 29.48 in 10.0 mi West 10.4 mph 19.6 mph N/A   Clear
3:15 PM 77.0 °F 32.0 °F 19% 29.48 in 10.0 mi NNW 9.2 mph 18.4 mph N/A   Clear
3:35 PM 75.2 °F 32.0 °F 21% 29.50 in 10.0 mi WNW 8.1 mph 16.1 mph N/A   Clear
3:55 PM 73.4 °F 32.0 °F 22% 29.50 in 10.0 mi NNW 11.5 mph - N/A   Clear
4:15 PM 73.4 °F 33.8 °F 23% 29.51 in 10.0 mi North 16.1 mph 20.7 mph N/A   Clear
4:35 PM 71.6 °F 33.8 °F 25% 29.52 in 10.0 mi North 13.8 mph 23.0 mph N/A   Clear
4:55 PM 69.8 °F 35.6 °F 28% 29.55 in 10.0 mi NNW 11.5 mph 17.3 mph N/A   Clear
5:15 PM 68.0 °F 35.6 °F 30% 29.56 in 10.0 mi North 10.4 mph 23.0 mph N/A   Clear
5:35 PM 66.2 °F 35.6 °F 32% 29.57 in 10.0 mi North 9.2 mph 20.7 mph N/A   Clear
5:55 PM 64.4 °F 37.4 °F 37% 29.59 in 10.0 mi North 18.4 mph 27.6 mph N/A   Clear
6:15 PM 62.6 °F 37.4 °F 39% 29.62 in 10.0 mi North 12.7 mph 27.6 mph N/A   Clear
6:35 PM 60.8 °F 37.4 °F 42% 29.64 in 10.0 mi North 15.0 mph 25.3 mph N/A   Clear
6:55 PM 60.8 °F 35.6 °F 39% 29.65 in 10.0 mi North 15.0 mph 25.3 mph N/A   Clear
7:15 PM 59.0 °F 35.6 °F 42% 29.66 in 10.0 mi North 16.1 mph 24.2 mph N/A   Clear
7:35 PM 59.0 °F 35.6 °F 42% 29.69 in 10.0 mi North 16.1 mph 26.5 mph N/A   Clear
7:55 PM 59.0 °F 33.8 °F 39% 29.71 in 10.0 mi North 18.4 mph 26.5 mph N/A   Clear
8:15 PM 57.2 °F 33.8 °F 41% 29.72 in 10.0 mi North 16.1 mph 25.3 mph N/A   Clear
8:35 PM 55.4 °F 33.8 °F 44% 29.75 in 10.0 mi NNW 13.8 mph 31.1 mph N/A   Clear
8:55 PM 53.6 °F 32.0 °F 44% 29.77 in 10.0 mi NNW 18.4 mph 26.5 mph N/A   Clear
9:15 PM 53.6 °F 30.2 °F 41% 29.78 in 10.0 mi North 21.9 mph 31.1 mph N/A   Clear
9:35 PM 53.6 °F 28.4 °F 38% 29.80 in 10.0 mi North 18.4 mph 29.9 mph N/A   Clear
9:55 PM 51.8 °F 28.4 °F 41% 29.82 in 10.0 mi North 17.3 mph 28.8 mph N/A   Clear
10:15 PM 51.8 °F 28.4 °F 41% 29.84 in 10.0 mi NNW 12.7 mph 24.2 mph N/A   Clear
10:35 PM 50.0 °F 28.4 °F 43% 29.87 in 10.0 mi North 15.0 mph 24.2 mph N/A   Clear
10:55 PM 50.0 °F 24.8 °F 37% 29.88 in 10.0 mi North 17.3 mph 24.2 mph N/A   Clear
11:15 PM 50.0 °F 23.0 °F 35% 29.90 in 10.0 mi North 15.0 mph 24.2 mph N/A   Clear
11:35 PM 48.2 °F 23.0 °F 37% 29.90 in 10.0 mi North 15.0 mph 21.9 mph N/A   Clear
11:55 PM 48.2 °F 23.0 °F 37% 29.91 in 10.0 mi North 16.1 mph 20.7 mph N/A   Clear